AB1IG Weather Reports


Display with metric or nautical units.
time (UTC)temp
F
wind
direction
speed
MPH
gust
MPH
rain 1hr
in
rain 24hr
in
rain mn
in
humidity
%
barometer
mb
20260509100008 56 38 0.0 0.0 0.01 0.18 0.01 95 1007.2
20260509094507 56 39 0.0 0.0 0.01 0.18 0.01 95 1007.4
20260509093017 56 39 0.0 0.0 0.01 0.18 0.01 94 1007.4
20260509091508 56 39 0.0 0.0 0.01 0.18 0.01 94 1007.3
20260509090004 57 38 0.0 0.0 0.00 0.17 0.00 95 1007.3
20260509084510 57 38 0.0 1.0 0.00 0.17 0.00 95 1007.3
20260509083002 57 38 0.0 0.0 0.00 0.17 0.00 94 1007.2
20260509081601 57 39 0.0 0.0 0.00 0.17 0.00 94 1007.2
20260509081501 57 39 0.0 0.0 0.00 0.17 0.00 94 1007.2
20260509080059 57 39 0.0 0.0 0.00 0.17 0.00 93 1007.5
20260509074601 57 38 0.0 0.0 0.00 0.17 0.00 93 1007.5
20260509073053 58 38 0.0 0.0 0.00 0.17 0.00 93 1007.8
20260509071551 58 38 0.0 0.0 0.00 0.17 0.00 93 1007.8
20260509070055 59 38 0.0 0.0 0.00 0.17 0.00 93 1007.8
20260509064549 59 38 0.0 1.0 0.00 0.17 0.00 93 1007.9
20260509063045 59 38 0.0 0.0 0.00 0.17 0.00 92 1007.8
20260509061545 60 38 0.0 0.0 0.00 0.17 0.00 92 1008.1
20260509060042 60 38 0.0 0.0 0.00 0.17 0.00 91 1008.0
20260509054552 60 39 0.0 0.0 0.00 0.17 0.00 91 1007.9
20260509053131 61 39 0.0 0.0 0.00 0.17 0.00 90 1007.9
20260509051545 61 38 0.0 1.0 0.00 0.17 0.00 89 1007.9
20260509050043 62 23 0.0 4.0 0.00 0.17 0.00 89 1007.9
20260509044533 62 31 0.0 0.0 0.00 0.17 0.17 89 1007.9
20260509043033 62 37 2.0 5.0 0.00 0.17 0.17 90 1007.9
20260509041532 62 49 1.0 3.0 0.00 0.17 0.17 91 1007.7
20260509040031 62 200 1.0 5.0 0.00 0.17 0.17 91 1007.6
20260509034531 62 207 0.0 0.0 0.00 0.17 0.17 90 1007.1
20260509033029 62 206 0.0 1.0 0.00 0.17 0.17 89 1007.0
20260509031528 62 207 0.0 0.0 0.00 0.17 0.17 88 1006.5
20260509030033 63 207 0.0 0.0 0.00 0.17 0.17 87 1006.1
20260509024528 63 206 0.0 0.0 0.00 0.17 0.17 86 1005.7
20260509023030 64 207 0.0 3.0 0.00 0.17 0.17 85 1005.5
20260509021526 64 207 0.0 2.0 0.00 0.17 0.17 85 1005.4
20260509020025 64 321 0.0 3.0 0.00 0.17 0.17 86 1005.2
20260509014526 64 211 0.0 1.0 0.00 0.17 0.17 86 1005.0
20260509013027 65 211 0.0 0.0 0.00 0.17 0.17 83 1004.4
20260509011524 67 211 0.0 0.0 0.00 0.17 0.17 80 1004.3
20260509010024 69 243 0.0 2.0 0.00 0.17 0.17 77 1004.4
20260509004527 70 233 0.0 2.0 0.00 0.17 0.17 77 1004.2
20260509003040 69 156 1.0 7.0 0.00 0.17 0.17 76 1003.8
20260509001522 71 102 0.0 3.0 0.01 0.17 0.17 77 1003.0
20260509000022 70 160 1.0 3.0 0.01 0.17 0.17 81 1002.8
20260508234526 70 204 0.0 1.0 0.14 0.17 0.17 86 1003.2
20260508233020 66 243 0.0 2.0 0.17 0.17 0.17 88 1002.4
20260508231521 65 318 2.0 4.0 0.16 0.16 0.16 85 1003.6
20260508230017 66 69 0.0 6.0 0.16 0.16 0.16 79 1003.5
20260508224515 75 258 6.0 21.0 0.01 0.01 0.01 63 1004.0
20260508223018 81 273 2.0 6.0 0.00 0.00 0.00 46 1001.8
20260508221517 82 92 0.0 5.0 0.00 0.00 0.00 44 1002.2
20260508220016 84 156 3.0 9.0 0.00 0.00 0.00 43 1002.2
20260508214507 86 305 2.0 9.0 0.00 0.00 0.00 41 1002.6
20260508213004 85 266 3.0 7.0 0.00 0.00 0.00 43 1003.2
20260508211501 85 219 3.0 8.0 0.00 0.00 0.00 43 1003.6
20260508210059 85 277 4.0 8.0 0.00 0.00 0.00 44 1004.0
20260508204555 85 277 1.0 7.0 0.00 0.00 0.00 45 1004.1
20260508203054 84 134 3.0 7.0 0.00 0.00 0.00 45 1004.4
20260508201559 84 259 2.0 8.0 0.00 0.00 0.00 46 1004.7
20260508200058 84 142 3.0 7.0 0.00 0.00 0.00 47 1004.9
20260508194547 83 302 3.0 9.0 0.00 0.00 0.00 47 1005.0
20260508193053 83 181 1.0 9.0 0.00 0.00 0.00 48 1005.0
20260508191541 82 257 3.0 7.0 0.00 0.00 0.00 48 1005.2
20260508190044 81 256 2.0 9.0 0.00 0.00 0.00 49 1005.4
20260508184536 81 245 3.0 7.0 0.00 0.00 0.00 49 1005.6
20260508183031 80 169 3.0 8.0 0.00 0.00 0.00 48 1005.8
20260508181527 79 250 4.0 10.0 0.00 0.00 0.00 51 1006.2
20260508180026 79 251 3.0 9.0 0.00 0.00 0.00 50 1006.3
20260508174532 78 129 3.0 11.0 0.00 0.00 0.00 51 1006.6
20260508173021 77 319 2.0 7.0 0.00 0.00 0.00 51 1006.8
20260508171516 76 262 3.0 13.0 0.00 0.00 0.00 51 1007.0
20260508170012 75 131 2.0 10.0 0.00 0.00 0.00 51 1007.6
20260508164511 74 160 3.0 10.0 0.00 0.00 0.00 51 1007.9
20260508163020 75 229 3.0 12.0 0.00 0.00 0.00 49 1008.1
20260508161507 74 221 4.0 10.0 0.00 0.00 0.00 50 1008.3
20260508160103 72 22 3.0 12.0 0.00 0.00 0.00 53 1008.5
20260508154600 71 226 4.0 11.0 0.00 0.00 0.00 53 1008.4
20260508153057 70 295 6.0 16.0 0.00 0.00 0.00 54 1008.9
20260508151552 69 278 4.0 13.0 0.00 0.00 0.00 55 1009.0
20260508150048 68 117 4.0 11.0 0.00 0.00 0.00 57 1009.1
20260508144544 67 218 4.0 13.0 0.00 0.00 0.00 60 1009.2
20260508143041 66 233 4.0 11.0 0.00 0.00 0.00 62 1009.3
20260508141538 65 204 4.0 10.0 0.00 0.00 0.00 63 1009.4
20260508140035 63 57 5.0 12.0 0.00 0.00 0.00 65 1009.6
20260508134535 62 225 3.0 9.0 0.00 0.00 0.00 67 1009.8
20260508131527 60 229 2.0 8.0 0.00 0.00 0.00 72 1010.0
20260508130027 59 125 4.0 10.0 0.00 0.00 0.00 74 1009.8
20260508124526 58 319 2.0 6.0 0.00 0.00 0.00 76 1009.9
20260508123032 58 149 2.0 8.0 0.00 0.00 0.00 76 1009.8
20260508121525 57 260 1.0 7.0 0.00 0.00 0.00 78 1009.8
20260508120024 56 214 1.0 10.0 0.00 0.00 0.00 79 1009.8
20260508114524 56 291 1.0 9.0 0.00 0.00 0.00 78 1009.9
20260508113025 56 260 1.0 8.0 0.00 0.00 0.00 79 1009.8
20260508111525 56 124 2.0 6.0 0.00 0.00 0.00 79 1009.7
20260508110029 56 248 3.0 7.0 0.00 0.00 0.00 78 1009.6
20260508104518 56 218 2.0 8.0 0.00 0.00 0.00 77 1009.6
20260508103016 57 260 2.0 8.0 0.00 0.00 0.00 77 1009.4
20260508101529 57 259 2.0 9.0 0.00 0.00 0.00 76 1009.3